Hourly Weather Padang

Today, 15 July, Wednesday

Time Temperature Precipitation Wind Pressure Humidity
00:00 +28°C° 0 mm 1 mps 757 mmHg 88%
01:00 +27°C° 0 mm 1 mps 756 mmHg 89%
02:00 +27°C° 0 mm 1 mps 756 mmHg 89%
03:00 +27°C° 0 mm 1 mps 755 mmHg 88%
04:00 +26°C° 0 mm 1 mps 755 mmHg 87%
05:00 +26°C° 0 mm 1 mps 755 mmHg 86%
06:00 +26°C° 0 mm 1 mps 755 mmHg 84%
07:00 +27°C° 0 mm 2 mps 756 mmHg 84%
08:00 +29°C° 0 mm 2 mps 756 mmHg 76%
09:00 +31°C° 0 mm 1 mps 756 mmHg 68%
10:00 +33°C° 0 mm 1 mps 756 mmHg 60%
11:00 +34°C° 0 mm 1 mps 756 mmHg 59%
12:00 +36°C° 0 mm 2 mps 755 mmHg 58%
13:00 +36°C° 0 mm 2 mps 755 mmHg 57%
14:00 +35°C° 0.2 mm 2 mps 754 mmHg 62%
15:00 +33°C° 0.2 mm 1 mps 754 mmHg 67%
16:00 +33°C° 0.2 mm 1 mps 753 mmHg 72%
17:00 +31°C° 0.2 mm 1 mps 754 mmHg 80%
18:00 +28°C° 0.2 mm 0 mps 754 mmHg 88%
19:00 +26°C° 0.2 mm 0 mps 755 mmHg 96%
20:00 +28°C° 0.3 mm 1 mps 755 mmHg 95%
21:00 +28°C° 0.3 mm 1 mps 756 mmHg 95%
22:00 +27°C° 0.3 mm 2 mps 756 mmHg 94%
23:00 +27°C° 0 mm 2 mps 756 mmHg 94%

Tomorrow, 16 July, Thursday

Time Temperature Precipitation Wind Pressure Humidity
00:00 +27°C° 0 mm 1 mps 756 mmHg 93%
01:00 +27°C° 0 mm 1 mps 756 mmHg 93%
02:00 +27°C° 0 mm 1 mps 756 mmHg 93%
03:00 +26°C° 0 mm 1 mps 755 mmHg 92%
04:00 +26°C° 0 mm 1 mps 755 mmHg 92%
05:00 +26°C° 0 mm 1 mps 755 mmHg 92%
06:00 +26°C° 0 mm 1 mps 755 mmHg 91%
07:00 +27°C° 0 mm 1 mps 756 mmHg 90%
08:00 +29°C° 0 mm 1 mps 756 mmHg 81%
09:00 +31°C° 0 mm 1 mps 756 mmHg 71%
10:00 +34°C° 0 mm 1 mps 756 mmHg 62%
11:00 +34°C° 1.1 mm 2 mps 756 mmHg 71%
12:00 +32°C° 1.1 mm 2 mps 755 mmHg 80%
13:00 +31°C° 1.1 mm 3 mps 755 mmHg 89%
14:00 +31°C° 3 mm 3 mps 755 mmHg 91%
15:00 +30°C° 3 mm 3 mps 754 mmHg 93%
16:00 +29°C° 3 mm 3 mps 753 mmHg 95%
17:00 +29°C° 2.9 mm 2 mps 754 mmHg 96%
18:00 +28°C° 2.9 mm 2 mps 754 mmHg 97%
19:00 +27°C° 2.9 mm 2 mps 755 mmHg 98%
20:00 +27°C° 2.9 mm 2 mps 755 mmHg 98%
21:00 +27°C° 2.9 mm 2 mps 756 mmHg 98%
22:00 +27°C° 2.9 mm 2 mps 756 mmHg 98%
23:00 +27°C° 2.7 mm 2 mps 756 mmHg 98%

Day after tomorrow, 17 July, Friday

Time Temperature Precipitation Wind Pressure Humidity
00:00 +27°C° 2.7 mm 2 mps 756 mmHg 98%
01:00 +27°C° 2.7 mm 2 mps 756 mmHg 98%
02:00 +26°C° 2.6 mm 2 mps 756 mmHg 98%
03:00 +26°C° 2.6 mm 3 mps 756 mmHg 98%
04:00 +25°C° 2.6 mm 3 mps 755 mmHg 97%
05:00 +26°C° 1 mm 3 mps 756 mmHg 97%
06:00 +26°C° 1 mm 2 mps 756 mmHg 96%
07:00 +26°C° 1 mm 2 mps 756 mmHg 95%
08:00 +27°C° 0 mm 1 mps 756 mmHg 92%
09:00 +28°C° 0 mm 1 mps 756 mmHg 88%
10:00 +29°C° 0 mm 1 mps 757 mmHg 85%
11:00 +30°C° 0.1 mm 1 mps 756 mmHg 80%
12:00 +31°C° 0.1 mm 1 mps 756 mmHg 75%
13:00 +32°C° 0.1 mm 1 mps 755 mmHg 70%
14:00 +32°C° 0.8 mm 1 mps 755 mmHg 77%
15:00 +31°C° 0.8 mm 1 mps 754 mmHg 83%
16:00 +31°C° 0.8 mm 1 mps 754 mmHg 90%
17:00 +30°C° 1.3 mm 1 mps 754 mmHg 91%
18:00 +29°C° 1.3 mm 1 mps 755 mmHg 93%
19:00 +27°C° 1.3 mm 1 mps 756 mmHg 95%
20:00 +27°C° 1.3 mm 1 mps 756 mmHg 95%
21:00 +27°C° 1.3 mm 1 mps 757 mmHg 96%
22:00 +27°C° 1.3 mm 1 mps 757 mmHg 96%
23:00 +26°C° 0.2 mm 1 mps 757 mmHg 96%

18 July, Saturday

Time Temperature Precipitation Wind Pressure Humidity
00:00 +26°C° 0.2 mm 1 mps 757 mmHg 96%
01:00 +26°C° 0.2 mm 1 mps 757 mmHg 96%
02:00 +26°C° 0.1 mm 1 mps 757 mmHg 96%
03:00 +26°C° 0.1 mm 1 mps 756 mmHg 95%
04:00 +26°C° 0.1 mm 1 mps 756 mmHg 95%
05:00 +26°C° 0 mm 1 mps 756 mmHg 95%
06:00 +26°C° 0 mm 1 mps 756 mmHg 94%
07:00 +26°C° 0 mm 1 mps 757 mmHg 94%
08:00 +28°C° 0.1 mm 1 mps 757 mmHg 88%
09:00 +30°C° 0.1 mm 1 mps 757 mmHg 82%
10:00 +32°C° 0.1 mm 1 mps 757 mmHg 75%
11:00 +32°C° 0.6 mm 1 mps 757 mmHg 78%
12:00 +32°C° 0.6 mm 1 mps 756 mmHg 81%
13:00 +32°C° 0.6 mm 1 mps 756 mmHg 83%
14:00 +31°C° 0.8 mm 1 mps 755 mmHg 86%
15:00 +30°C° 0.8 mm 1 mps 755 mmHg 89%
16:00 +30°C° 0.8 mm 1 mps 755 mmHg 92%
17:00 +29°C° 0.4 mm 1 mps 755 mmHg 93%
18:00 +28°C° 0.4 mm 1 mps 756 mmHg 95%
19:00 +27°C° 0.4 mm 1 mps 756 mmHg 96%
20:00 +27°C° 0.1 mm 1 mps 757 mmHg 96%
21:00 +27°C° 0.1 mm 1 mps 757 mmHg 96%
22:00 +26°C° 0.1 mm 1 mps 758 mmHg 95%
23:00 +26°C° 0 mm 1 mps 757 mmHg 95%

19 July, Sunday

Time Temperature Precipitation Wind Pressure Humidity
00:00 +26°C° 0 mm 1 mps 757 mmHg 95%
01:00 +26°C° 0 mm 1 mps 757 mmHg 95%
02:00 +26°C° 0 mm 1 mps 756 mmHg 94%
03:00 +26°C° 0 mm 1 mps 756 mmHg 94%
04:00 +25°C° 0 mm 1 mps 755 mmHg 94%
05:00 +26°C° 0 mm 1 mps 756 mmHg 94%
06:00 +26°C° 0 mm 1 mps 756 mmHg 93%
07:00 +26°C° 0 mm 1 mps 756 mmHg 93%
08:00 +28°C° 0 mm 1 mps 757 mmHg 84%
09:00 +30°C° 0 mm 1 mps 757 mmHg 76%
10:00 +30°C° 0 mm 0 mps 757 mmHg 67%
11:00 +32°C° 0.1 mm 1 mps 757 mmHg 71%
12:00 +31°C° 0.1 mm 1 mps 756 mmHg 76%
13:00 +31°C° 0.1 mm 1 mps 755 mmHg 81%
14:00 +31°C° 0.4 mm 1 mps 755 mmHg 83%
15:00 +30°C° 0.4 mm 1 mps 755 mmHg 86%
16:00 +30°C° 0.4 mm 1 mps 754 mmHg 89%
17:00 +29°C° 0.3 mm 1 mps 755 mmHg 91%
18:00 +28°C° 0.3 mm 1 mps 755 mmHg 94%
19:00 +27°C° 0.3 mm 1 mps 756 mmHg 96%
20:00 +27°C° 0.3 mm 1 mps 756 mmHg 96%
21:00 +27°C° 0.3 mm 1 mps 757 mmHg 95%
22:00 +26°C° 0.3 mm 1 mps 757 mmHg 94%
23:00 +26°C° 0.1 mm 1 mps 757 mmHg 94%

20 July, Monday

Time Temperature Precipitation Wind Pressure Humidity
00:00 +26°C° 0.1 mm 1 mps 757 mmHg 93%
01:00 +26°C° 0.1 mm 2 mps 756 mmHg 93%
02:00 +26°C° 0 mm 1 mps 756 mmHg 91%
03:00 +25°C° 0 mm 1 mps 756 mmHg 90%
04:00 +25°C° 0 mm 1 mps 755 mmHg 88%
05:00 +25°C° 0 mm 1 mps 756 mmHg 86%
06:00 +25°C° 0 mm 1 mps 756 mmHg 84%
07:00 +26°C° 0 mm 1 mps 756 mmHg 82%
08:00 +28°C° 0 mm 1 mps 756 mmHg 72%
09:00 +31°C° 0 mm 1 mps 757 mmHg 62%
10:00 +33°C° 0 mm 1 mps 757 mmHg 51%
11:00 +34°C° 0 mm 1 mps 756 mmHg 52%
12:00 +34°C° 0 mm 1 mps 756 mmHg 53%
13:00 +35°C° 0 mm 2 mps 755 mmHg 53%
14:00 +34°C° 0.3 mm 2 mps 755 mmHg 62%
15:00 +32°C° 0.3 mm 2 mps 755 mmHg 70%
16:00 +31°C° 0.3 mm 1 mps 754 mmHg 79%
17:00 +30°C° 0.3 mm 1 mps 755 mmHg 83%
18:00 +28°C° 0.3 mm 1 mps 755 mmHg 88%
19:00 +25°C° 0.3 mm 0 mps 755 mmHg 92%
20:00 +27°C° 0 mm 1 mps 756 mmHg 92%
21:00 +27°C° 0 mm 1 mps 757 mmHg 92%
22:00 +26°C° 0 mm 1 mps 757 mmHg 92%
23:00 +26°C° 0 mm 1 mps 757 mmHg 90%
Show more